CW9914 Weather Reports


time (UTC)temp
C
wind
direction
speed
KPH
gust
KPH
rain 1hr
cm
rain 24hr
cm
rain mn
cm
humidity
%
barometer
mb
20260507095900 13 90 4.8 9.7 0.00 0.00 0.00 72 1009.0
20260507095359 12 99 4.8 9.7 0.00 0.00 0.00 76 1009.4
20260507094859 12 118 4.8 9.7 0.00 0.00 0.00 78 1009.5
20260507094400 11 137 4.8 8.0 0.00 0.00 0.00 80 1009.5
20260507093900 10 136 1.6 4.8 0.00 0.00 0.00 82 1009.8
20260507093359 10 105 3.2 9.7 0.00 0.00 0.00 84 1009.8
20260507092900 10 128 9.7 14.5 0.00 0.00 0.00 86 1009.9
20260507092359 10 108 4.8 9.7 0.00 0.00 0.00 89 1010.1
20260507091900 9 113 4.8 9.7 0.00 0.00 0.00 91 1010.3
20260507091400 9 102 8.0 12.9 0.00 0.00 0.00 93 1010.2
20260507090900 8 113 4.8 9.7 0.00 0.00 0.00 95 1010.4
20260507090359 8 119 4.8 8.0 0.00 0.00 0.00 97 1010.6
20260507085859 8 126 4.8 8.0 0.00 0.00 0.00 99 1010.4
20260507085400 8 150 1.6 4.8 0.00 0.00 0.00 99 1010.5
20260507084859 8 57 3.2 8.0 0.00 0.00 0.00 99 1010.5
20260507083900 8 81 4.8 12.9 0.00 0.00 0.00 99 1010.6
20260507083400 8 107 4.8 9.7 0.00 0.00 0.00 99 1010.6
20260507082400 7 68 9.7 12.9 0.00 0.00 0.00 99 1010.7
20260507081400 7 138 4.8 14.5 0.00 0.00 0.00 99 1010.8
20260507080900 7 69 4.8 9.7 0.00 0.00 0.00 99 1010.9
20260507075859 6 98 4.8 9.7 0.00 0.00 0.00 99 1011.0
20260507075400 6 359 3.2 9.7 0.00 0.00 0.00 99 1011.3
20260507074900 6 117 3.2 9.7 0.00 0.00 0.00 99 1011.2
20260507074359 6 107 3.2 8.0 0.00 0.00 0.00 99 1011.2
20260507073900 6 86 3.2 9.7 0.00 0.00 0.00 99 1011.1
20260507073400 7 353 3.2 8.0 0.00 0.00 0.00 99 1011.1
20260507072859 7 62 4.8 9.7 0.00 0.00 0.00 99 1011.3
20260507072400 6 85 3.2 11.3 0.00 0.00 0.00 99 1011.5
20260507071859 6 91 4.8 9.7 0.00 0.00 0.00 99 1011.2
20260507071400 6 154 8.0 9.7 0.00 0.00 0.00 99 1011.2
20260507070900 6 49 4.8 8.0 0.00 0.00 0.00 99 1011.2
20260507070400 6 44 4.8 12.9 0.00 0.00 0.00 99 1011.2
20260507065900 6 82 6.4 11.3 0.00 0.00 0.00 99 1011.4
20260507065400 6 152 3.2 8.0 0.00 0.00 0.00 99 1011.4
20260507064900 6 90 3.2 8.0 0.00 0.00 0.00 99 1011.3
20260507064400 6 95 4.8 11.3 0.00 0.00 0.00 99 1011.3
20260507063859 6 113 3.2 8.0 0.00 0.00 0.00 99 1011.5
20260507063359 6 302 3.2 9.7 0.00 0.00 0.00 99 1011.4
20260507062900 6 38 4.8 9.7 0.00 0.00 0.00 99 1011.4
20260507062400 6 77 3.2 9.7 0.00 0.00 0.00 99 1011.4
20260507061900 6 87 3.2 8.0 0.00 0.00 0.00 99 1011.3
20260507061400 6 128 3.2 9.7 0.00 0.00 0.00 99 1011.4
20260507060900 6 108 3.2 9.7 0.00 0.00 0.00 99 1011.2
20260507060400 6 354 3.2 11.3 0.00 0.00 0.00 99 1011.0
20260507055859 6 83 4.8 11.3 0.00 0.00 0.00 99 1011.2
20260507055400 6 60 6.4 14.5 0.00 0.00 0.00 99 1010.9
20260507054900 6 37 8.0 12.9 0.00 0.00 0.00 99 1011.1
20260507053900 6 41 4.8 8.0 0.00 0.00 0.00 99 1011.3
20260507053400 5 55 4.8 9.7 0.00 0.00 0.00 98 1011.4
20260507052900 6 120 4.8 11.3 0.00 0.00 0.00 99 1011.3
20260507052400 6 64 4.8 11.3 0.00 0.00 0.00 99 1011.2
20260507051900 6 104 3.2 9.7 0.00 0.00 0.00 99 1011.3
20260507051400 6 17 3.2 9.7 0.00 0.00 0.00 99 1011.2
20260507050900 6 35 4.8 11.3 0.00 0.00 0.00 99 1011.2
20260507045859 6 20 4.8 9.7 0.00 0.00 0.00 99 1011.2
20260507045359 6 35 3.2 9.7 0.00 0.00 0.00 99 1011.1
20260507044359 6 34 9.7 12.9 0.00 0.00 0.00 99 1011.2
20260507043900 6 59 4.8 11.3 0.00 0.00 0.00 99 1011.4
20260507043400 6 44 4.8 11.3 0.00 0.00 0.00 99 1011.5
20260507042900 6 37 8.0 14.5 0.00 0.00 0.00 99 1011.6
20260507042400 6 29 11.3 19.3 0.00 0.00 0.00 99 1011.2
20260507041900 6 23 6.4 12.9 0.00 0.00 0.00 99 1011.4
20260507041400 6 91 4.8 8.0 0.00 0.00 0.00 99 1011.6
20260507040900 6 42 4.8 9.7 0.00 0.00 0.00 99 1011.5
20260507040400 6 58 4.8 11.3 0.00 0.00 0.00 99 1011.6
20260507035900 6 30 4.8 12.9 0.00 0.00 0.00 99 1011.6
20260507035400 6 61 3.2 8.0 0.00 0.00 0.00 99 1011.4
20260507034400 6 73 4.8 12.9 0.00 0.00 0.00 98 1011.5
20260507033900 6 49 9.7 14.5 0.00 0.00 0.00 98 1011.7
20260507033400 6 79 4.8 11.3 0.00 0.00 0.00 98 1011.5
20260507031900 6 39 4.8 12.9 0.00 0.00 0.00 97 1011.7
20260507031400 6 85 1.6 8.0 0.00 0.00 0.00 97 1011.8
20260507030900 6 106 4.8 11.3 0.00 0.00 0.00 97 1011.6
20260507030359 7 68 3.2 19.3 0.00 0.00 0.00 97 1011.4
20260507025900 7 39 12.9 20.9 0.00 0.00 0.00 97 1011.5
20260507024900 6 56 8.0 12.9 0.00 0.00 0.00 97 1011.6
20260507024400 6 42 4.8 9.7 0.00 0.00 0.00 97 1011.6
20260507023859 6 64 8.0 9.7 0.00 0.00 0.00 97 1011.6
20260507023400 6 127 4.8 8.0 0.00 0.00 0.00 97 1011.7
20260507022900 7 35 3.2 9.7 0.00 0.00 0.00 97 1011.6
20260507022400 7 46 4.8 9.7 0.00 0.00 0.00 97 1011.5
20260507021400 7 39 6.4 9.7 0.00 0.00 0.00 97 1011.7
20260507020400 7 50 3.2 9.7 0.00 0.00 0.00 97 1011.7
20260507015900 7 29 6.4 8.0 0.00 0.00 0.00 98 1011.8
20260507015401 7 39 3.2 4.8 0.00 0.00 0.00 98 1011.8
20260507014900 7 12 3.2 4.8 0.00 0.00 0.00 98 1011.8
20260507014400 7 23 3.2 4.8 0.00 0.00 0.00 98 1012.0
20260507013900 7 350 1.6 3.2 0.00 0.00 0.00 98 1011.8
20260507013400 7 25 3.2 4.8 0.00 0.00 0.00 98 1011.9
20260507012900 7 29 3.2 4.8 0.00 0.00 0.00 98 1012.1
20260507012400 6 17 3.2 3.2 0.00 0.00 0.00 97 1011.9
20260507011400 7 238 1.6 3.2 0.00 0.00 0.00 97 1012.0
20260507010401 7 29 4.8 14.5 0.00 0.00 0.00 97 1011.9
20260507005900 7 37 3.2 8.0 0.00 0.00 0.00 97 1012.1
20260507005400 7 20 1.6 4.8 0.00 0.00 0.00 97 1012.2
20260507004900 7 40 3.2 8.0 0.00 0.00 0.00 96 1012.3
20260507004400 7 63 1.6 8.0 0.00 0.00 0.00 95 1012.3
20260507003900 7 48 3.2 11.3 0.00 0.00 0.00 96 1012.2
20260507003400 7 49 8.0 11.3 0.00 0.00 0.00 95 1012.2
20260507002900 7 47 3.2 8.0 0.00 0.00 0.00 95 1012.2
20260507002400 7 71 3.2 4.8 0.00 0.00 0.00 95 1012.3
20260507001900 8 59 4.8 11.3 0.00 0.00 0.00 94 1012.4
20260507001400 8 40 8.0 12.9 0.00 0.00 0.00 94 1012.4
20260507000900 8 65 3.2 9.7 0.00 0.00 0.00 93 1012.3
20260507000400 8 59 4.8 9.7 0.00 0.00 0.00 93 1012.3
20260506235901 8 56 9.7 12.9 0.00 0.00 0.00 93 1012.3
20260506234900 8 44 9.7 14.5 0.00 0.00 0.00 93 1012.3
20260506233900 8 36 8.0 12.9 0.00 0.00 0.00 92 1012.5
20260506233400 8 34 6.4 12.9 0.00 0.00 0.00 92 1012.6
20260506232901 8 51 8.0 16.1 0.00 0.00 0.00 92 1012.6
20260506232400 8 35 11.3 20.9 0.00 0.00 0.00 92 1012.6
20260506231900 8 34 11.3 19.3 0.00 0.00 0.00 92 1012.6
20260506231400 8 33 8.0 14.5 0.00 0.00 0.00 92 1012.6
20260506230900 8 54 4.8 16.1 0.00 0.00 0.00 92 1012.6
20260506230400 8 34 11.3 19.3 0.00 0.00 0.00 92 1012.8
20260506225400 8 19 8.0 16.1 0.00 0.00 0.00 91 1012.8
20260506224900 8 29 6.4 16.1 0.00 0.00 0.00 91 1012.8
20260506224401 8 59 8.0 14.5 0.00 0.00 0.00 91 1012.8
20260506223401 8 37 8.0 16.1 0.00 0.00 0.00 90 1012.8
20260506222900 8 23 8.0 12.9 0.00 0.00 0.00 90 1012.8
20260506222400 8 36 9.7 16.1 0.00 0.00 0.00 90 1013.0
20260506221900 8 27 11.3 19.3 0.00 0.00 0.00 89 1012.9
20260506221400 8 42 9.7 22.5 0.00 0.00 0.00 89 1013.0
20260506220900 9 33 9.7 14.5 0.00 0.00 0.00 88 1013.0
20260506220401 9 30 12.9 19.3 0.00 0.00 0.00 88 1013.0
20260506215907 9 25 8.0 16.1 0.00 0.00 0.00 88 1013.1
20260506215400 9 33 11.3 19.3 0.00 0.00 0.00 87 1013.0
20260506214900 9 26 11.3 20.9 0.00 0.00 0.00 87 1013.2
20260506213900 9 8 4.8 16.1 0.00 0.00 0.00 86 1013.1
20260506213400 9 40 9.7 16.1 0.00 0.00 0.00 86 1013.4
20260506212401 9 37 9.7 19.3 0.00 0.00 0.00 85 1013.2
20260506211900 9 21 14.5 20.9 0.00 0.00 0.00 84 1013.3
20260506211400 9 19 14.5 20.9 0.00 0.00 0.00 84 1013.1
20260506210400 9 19 6.4 16.1 0.00 0.00 0.00 83 1013.3
20260506205900 9 25 9.7 14.5 0.00 0.00 0.00 83 1013.1
20260506205400 9 31 9.7 20.9 0.00 0.00 0.00 82 1013.2
20260506204400 9 40 16.1 25.7 0.00 0.00 0.00 81 1013.0
20260506203900 10 32 11.3 22.5 0.00 0.00 0.00 81 1013.0
20260506203400 10 36 12.9 22.5 0.00 0.00 0.00 80 1013.1
20260506202900 10 47 12.9 25.7 0.00 0.00 0.00 80 1012.9
20260506201900 10 28 14.5 25.7 0.00 0.00 0.00 78 1012.8
20260506200401 10 33 12.9 22.5 0.00 0.00 0.00 76 1012.4
20260506195401 10 43 16.1 25.7 0.00 0.00 0.00 74 1012.5
20260506194901 10 51 16.1 32.2 0.00 0.00 0.00 73 1012.5
20260506194400 10 43 19.3 29.0 0.00 0.00 0.00 73 1012.6
20260506193400 11 36 19.3 32.2 0.00 0.00 0.00 75 1012.4
20260506192900 11 40 17.7 32.2 0.00 0.00 0.00 76 1012.2
20260506192400 11 45 19.3 35.4 0.00 0.00 0.00 76 1012.3
20260506191900 11 48 16.1 25.7 0.00 0.00 0.00 77 1012.1
20260506191400 11 50 12.9 25.7 0.00 0.00 0.00 77 1012.0
20260506190900 12 63 12.9 22.5 0.00 0.00 0.00 76 1011.9
20260506190401 12 55 11.3 27.4 0.00 0.00 0.00 76 1011.9
20260506185900 12 36 20.9 29.0 0.00 0.00 0.00 74 1012.0
20260506185401 12 41 19.3 33.8 0.00 0.00 0.00 73 1011.8
20260506184400 12 18 19.3 29.0 0.00 0.00 0.00 72 1011.7
20260506183900 12 29 19.3 25.7 0.00 0.00 0.00 71 1011.5
20260506183400 12 25 14.5 29.0 0.00 0.00 0.00 70 1011.6
20260506182400 12 18 20.9 33.8 0.00 0.00 0.00 67 1011.7
20260506181901 12 18 20.9 29.0 0.00 0.00 0.00 66 1011.8
20260506181401 12 16 17.7 25.7 0.00 0.00 0.00 65 1011.7
20260506180900 12 35 12.9 24.1 0.00 0.00 0.00 66 1011.6
20260506180401 12 26 11.3 25.7 0.00 0.03 0.00 68 1011.6
20260506175900 12 21 19.3 29.0 0.00 0.03 0.00 68 1011.8
20260506175400 12 13 20.9 29.0 0.00 0.03 0.00 67 1011.7
20260506174900 12 25 14.5 25.7 0.00 0.03 0.00 68 1011.7
20260506174400 12 20 16.1 25.7 0.00 0.05 0.00 68 1011.5
20260506173901 12 17 14.5 29.0 0.00 0.05 0.00 70 1011.7
20260506173400 12 19 14.5 29.0 0.00 0.05 0.00 70 1011.8
20260506172400 12 14 25.7 33.8 0.00 0.20 0.00 72 1012.0
20260506171900 12 24 22.5 32.2 0.00 0.20 0.00 71 1011.9
20260506171401 12 25 22.5 33.8 0.00 0.20 0.00 71 1012.1
20260506170900 12 30 20.9 29.0 0.00 0.23 0.00 70 1012.0
20260506165401 12 18 16.1 22.5 0.00 0.30 0.00 71 1012.1
20260506164900 12 25 12.9 27.4 0.00 0.30 0.00 71 1012.0
20260506164400 12 36 14.5 32.2 0.00 0.30 0.00 71 1012.1
20260506163400 12 24 14.5 24.1 0.00 0.30 0.00 73 1011.9
20260506162900 12 14 16.1 27.4 0.00 0.30 0.00 71 1012.0
20260506162401 12 32 14.5 32.2 0.00 0.30 0.00 70 1012.2
20260506160900 12 13 16.1 29.0 0.00 0.30 0.00 72 1012.1
20260506160400 12 20 19.3 29.0 0.00 0.30 0.00 73 1012.0
20260506155900 12 11 14.5 24.1 0.00 0.30 0.00 71 1012.1
20260506155400 11 20 14.5 29.0 0.00 0.30 0.00 75 1012.3
20260506154901 12 18 19.3 29.0 0.00 0.30 0.00 76 1012.2
20260506154400 12 19 14.5 27.4 0.00 0.30 0.00 78 1012.3
20260506153900 11 15 19.3 27.4 0.00 0.30 0.00 79 1012.3
20260506153401 11 35 19.3 29.0 0.00 0.30 0.00 80 1012.4
20260506152401 11 23 20.9 33.8 0.00 0.30 0.00 81 1012.5
20260506151900 11 18 14.5 25.7 0.00 0.30 0.00 81 1012.5
20260506151400 11 14 22.5 29.0 0.00 0.30 0.00 80 1012.7
20260506145901 11 22 27.4 35.4 0.00 0.30 0.00 78 1012.8
20260506144901 11 24 20.9 38.6 0.00 0.30 0.00 77 1012.9
20260506144401 12 19 29.0 38.6 0.00 0.30 0.00 74 1012.6
20260506143900 13 26 19.3 29.0 0.00 0.30 0.00 71 1012.5
20260506143401 13 19 25.7 33.8 0.00 0.30 0.00 69 1012.5
20260506142900 14 17 20.9 33.8 0.00 0.30 0.00 65 1012.3
20260506142401 13 14 11.3 22.5 0.00 0.30 0.00 66 1012.4
20260506141901 12 334 9.7 19.3 0.00 0.30 0.00 68 1012.6
20260506141401 12 336 9.7 22.5 0.00 0.30 0.00 69 1012.7
20260506140900 12 340 11.3 22.5 0.00 0.30 0.00 67 1012.6
20260506140400 13 322 12.9 22.5 0.00 0.30 0.00 68 1012.6
20260506135900 12 7 11.3 20.9 0.00 0.30 0.00 67 1012.9
20260506135401 12 0 9.7 22.5 0.00 0.30 0.00 68 1012.9
20260506134900 12 5 11.3 22.5 0.00 0.30 0.00 68 1013.1
20260506134400 12 350 11.3 20.9 0.00 0.30 0.00 69 1012.9
20260506133900 12 4 14.5 24.1 0.00 0.30 0.00 68 1013.1
20260506133401 12 355 9.7 22.5 0.00 0.30 0.00 68 1013.0
20260506132901 12 7 9.7 22.5 0.00 0.30 0.00 68 1013.0
20260506132400 13 355 9.7 19.3 0.00 0.30 0.00 57 1012.6
20260506131401 14 54 14.5 24.1 0.00 0.33 0.00 55 1012.6
20260506130901 14 28 8.0 14.5 0.00 0.33 0.00 55 1012.7
20260506130401 13 67 6.4 11.3 0.00 0.33 0.00 58 1012.9
20260506125901 13 339 3.2 9.7 0.00 0.33 0.00 56 1012.9
20260506125406 13 90 3.2 8.0 0.00 0.33 0.00 57 1013.0
20260506124900 13 30 3.2 8.0 0.00 0.38 0.00 53 1013.0
20260506124400 13 95 4.8 11.3 0.00 0.48 0.00 56 1013.1
20260506123401 12 40 8.0 12.9 0.00 0.51 0.00 55 1013.3
20260506122901 14 33 11.3 14.5 0.00 0.61 0.00 55 1013.1
20260506121901 13 82 8.0 16.1 0.00 0.66 0.00 59 1013.4
20260506120400 14 104 8.0 14.5 0.00 0.66 0.00 55 1013.3
20260506115900 14 100 8.0 14.5 0.00 0.66 0.00 58 1013.3
20260506115401 15 84 8.0 16.1 0.00 0.66 0.00 56 1013.3
20260506114901 14 86 4.8 12.9 0.00 0.66 0.00 56 1013.4
20260506113901 13 73 4.8 8.0 0.00 0.66 0.00 62 1013.9
20260506113401 12 76 3.2 8.0 0.00 0.66 0.00 64 1014.2
20260506112901 11 57 4.8 8.0 0.00 0.66 0.00 67 1014.3
20260506111900 11 345 3.2 8.0 0.00 0.66 0.00 69 1014.5
20260506111400 11 272 3.2 4.8 0.00 0.66 0.00 69 1014.4
20260506110900 11 90 1.6 8.0 0.00 0.66 0.00 68 1014.4
20260506110401 12 238 1.6 12.9 0.00 0.66 0.00 67 1014.3
20260506105901 12 34 8.0 12.9 0.00 0.66 0.00 64 1014.5
20260506105401 12 29 11.3 16.1 0.00 0.66 0.00 63 1014.2
20260506104901 13 33 8.0 12.9 0.00 0.66 0.00 60 1014.0
20260506104401 13 88 8.0 16.1 0.00 0.66 0.00 63 1014.1
20260506103401 12 66 6.4 9.7 0.00 0.66 0.00 65 1014.5
20260506102901 11 75 8.0 12.9 0.00 0.66 0.00 67 1014.7
20260506102401 11 59 6.4 11.3 0.00 0.66 0.00 67 1014.6
20260506101401 12 92 4.8 12.9 0.00 0.66 0.00 69 1014.5
20260506100901 12 81 8.0 11.3 0.00 0.66 0.00 67 1014.3
20260506100401 12 101 6.4 9.7 0.00 0.66 0.00 70 1014.4